Puerto Plata, Dominican Republic

3:28 AM AST on February 24, 2017 (GMT -0400)
Gregorio Luperon International

Weather History for MDPP - February, 2014

Change the Weather History Date:

Sunday, February 23, 2014

  Actual Average Record
Temperature  
Mean Temperature 75 °F -  
Max Temperature 82 °F 82 °F 87 °F (1998)
Min Temperature 68 °F 68 °F 59 °F (2016)
Cooling Degree Days 10    
Growing Degree Days 25 (Base 50)    
Moisture  
Dew Point 72 °F    
Average Humidity 79    
Maximum Humidity 100    
Minimum Humidity 63    
Precipitation  
Precipitation 0.00 in - - ()
Sea Level Pressure  
Sea Level Pressure 30.03 in    
Wind  
Wind Speed 5 mph ()    
Max Wind Speed 18 mph    
Max Gust Speed -    
Visibility 7.0 miles    
Events      
Averages and records for this station are not official NWS values.
T = Trace of Precipitation, MM = Missing Value Source: Averaged Metar Reports

Daily Weather History Graph

Daily Weather History Graph

Search for Another Location

Airport or City:

Trip Planner

Search our weather history database for the weather conditions in past years. The results will help you decide how hot, cold, wet, or windy it might be!

Date:

Astronomy

Feb. 23, 2014 Rise Set
Actual Time 7:06 AM AST 6:45 PM AST
Civil Twilight 6:43 AM AST 7:07 PM AST
Nautical Twilight 6:18 AM AST 7:33 PM AST
Astronomical Twilight 5:52 AM AST 7:58 PM AST
Moon 1:39 AM AST (2/23) 1:07 PM AST (2/23)
Length of Visible Light 12h 23m
Length of Day
11h 39m
Last Quarter, 39% of the Moon is Illuminated
Feb 23
Last Quarter
Mar 1
New
Mar 8
First Quarter
Mar 16
Full
Mar 23
Last Quarter

Hourly Weather History & Observations

Time (AST) Temp. Heat Index Dew Point Humidity Pressure Visibility Wind Dir Wind Speed Gust Speed Precip Events Conditions
2:00 AM 71.6 °F - 71.6 °F 100% 30.04 in 6.2 mi Calm Calm - N/A   Scattered Clouds
5:00 AM 71.6 °F - 71.6 °F 100% 30.01 in 6.2 mi Calm Calm - N/A   Mostly Cloudy
8:00 AM 72 °F - 70 °F 93% 30.06 in 10 mi Calm Calm - -   Partly Cloudy
8:00 AM 71.6 °F - 69.8 °F 94% 30.04 in 6.2 mi Calm Calm - N/A   Mostly Cloudy
9:00 AM 77.0 °F - 71.6 °F 83% 30.04 in 6.2 mi ESE 5.8 mph - N/A   Partly Cloudy
10:00 AM 80.6 °F 85.4 °F 73.4 °F 79% 30.06 in 6.2 mi East 11.5 mph - N/A   Mostly Cloudy
11:00 AM 79 °F - 72 °F 73% 30.09 in 10 mi Calm Calm - -   Mostly Cloudy
11:00 AM 78.8 °F - 71.6 °F 78% 30.09 in 6.2 mi Calm Calm - N/A   Mostly Cloudy
12:00 PM 84.2 °F 89.6 °F 71.6 °F 66% 30.06 in 6.2 mi ESE 11.5 mph - N/A   Scattered Clouds
1:00 PM 84.2 °F 89.6 °F 71.6 °F 66% 30.04 in 6.2 mi East 17.3 mph - N/A   Scattered Clouds
2:00 PM 82.4 °F 88.2 °F 73.4 °F 74% 30.04 in 6.2 mi East 17.3 mph - N/A   Scattered Clouds
3:00 PM 82.4 °F 88.2 °F 73.4 °F 74% 29.98 in 6.2 mi East 11.5 mph - N/A   Partly Cloudy
4:00 PM 84.2 °F 90.9 °F 73.4 °F 70% 29.98 in 6.2 mi East 13.8 mph - N/A   Partly Cloudy
5:00 PM 83 °F - 72 °F 63% 29.97 in 10 mi East 11.2 mph - -   Scattered Clouds
5:00 PM 82.4 °F 87.2 °F 71.6 °F 70% 29.95 in 6.2 mi East 11.5 mph - N/A   Partly Cloudy
6:00 PM 82.4 °F 87.2 °F 71.6 °F 70% 29.98 in 6.2 mi East 18.4 mph - N/A   Partly Cloudy
7:00 PM 80.6 °F 84.6 °F 71.6 °F 74% 30.01 in 6.2 mi East 11.5 mph - N/A   Partly Cloudy
8:00 PM 77 °F - 72 °F 80% 30.03 in 10 mi East 8.9 mph - -   Scattered Clouds
8:00 PM 77.0 °F - 71.6 °F 83% 30.01 in 6.2 mi East 9.2 mph - N/A   Partly Cloudy
11:00 PM 73.4 °F - 69.8 °F 88% 30.04 in 6.2 mi Calm Calm - N/A   Partly Cloudy